Simultaneous Nadir Overpasses (SNOs) Predictions

Prediction of SNOs between GOES-16 and NPP Satellite Orbit:

Table of predicted SNOs for the next 14.0 days since TLE Epoch: 1/13/2017
Index Date Time (GOES-16) GOES-16 Lat,Lon NPP Lat,Lon Distance(km) Time Diff (sec)
1 01/14/2017 07:29:52 0.02, -89.47 0.32, -90.82 154.23 80
2 01/15/2017 07:08:26 0.02, -89.47 -0.67, -86.28 362.34 80
3 01/16/2017 19:30:23 -0.02, -89.48 -0.47, -91.59 240.04 80
4 01/17/2017 19:14:17 -0.02, -89.49 0.52, -87.06 277.10 80
5 01/19/2017 07:36:05 0.02, -89.49 0.66, -92.33 323.16 80
6 01/20/2017 07:14:39 0.02, -89.50 -0.33, -87.79 194.03 80
7 01/21/2017 19:36:35 -0.02, -89.52 -0.80, -93.10 407.90 80
8 01/22/2017 19:20:30 -0.02, -89.53 0.19, -88.56 109.63 80
9 01/24/2017 07:42:17 0.03, -89.53 0.99, -93.83 489.79 80
10 01/25/2017 07:20:52 0.03, -89.54 -0.00, -89.30 27.72 80




NCC Satellite Simultaneous Nadir Overpasses (SNOs) Prediction Service
